Location: La Loche
(56.4820°N, 109.4353°W)
Time: 20:20:01
(UTC-06:00)

Envisat - Visible Passes

Search period start: 25 March 2019 00:00
Search period end: 04 April 2019 00:00
Orbit: 764 x 766 km, 98.2° (Epoch: 25 March)

Date Brightness Start Highest point End Pass type
(mag) Time Alt. Az. Time Alt. Az. Time Alt. Az.
25 Mar 5.4 20:52:59 10° SW 20:57:09 25° W 21:01:21 10° NW visible
26 Mar 4.3 20:15:12 10° S 20:20:04 45° W 20:24:58 10° NNW visible
27 Mar 5.9 21:19:49 10° SW 21:23:02 17° W 21:26:16 10° NW visible
28 Mar 5.2 20:41:23 10° SSW 20:45:49 30° W 20:50:17 10° NNW visible
29 Mar 6.3 21:48:01 10° W 21:49:01 11° W 21:50:03 10° WNW visible
30 Mar 5.8 21:07:59 10° SW 21:11:40 20° W 21:15:22 10° NW visible
31 Mar 4.9 20:29:51 10° SSW 20:34:30 35° W 20:39:11 10° NNW visible
01 Apr 6.1 21:35:19 10° WSW 21:37:36 13° W 21:39:54 10° NW visible
02 Apr 5.6 20:56:15 10° SW 21:00:18 23° W 21:04:22 10° NW visible
